Location: Palomar Mountain Lodge
(33.3110°N, 116.8495°W)
Time: 01:11:20
(UTC-07:00)

Cosmos 2228 Rocket - Pass Details

Date: 12 July 2018
Orbit: 619 x 651 km, 82.5° (Epoch: 22 September)

Event Time Altitude Azimuth Distance (km) Brightness Sun altitude
Rises 20:51:12 0° 10° (N) 2,894 6.9 -10.2°
Reaches altitude 10° 20:53:52 10° 26° (NNE) 1,984 5.8 -10.7°
Maximum altitude 20:57:16 22° 77° (ENE) 1,373 4.5 -11.3°
Enters shadow 20:59:19 16° 113° (ESE) 1,626 4.6 -11.6°
